DELTA 1 DEB

Satellite information

Favourite Embed

Satellite Type and Status

DEBRISIN ORBIT

Key statistics

Satellite DELTA 1 DEB at a glance.

Uptime

18871

Days in orbit

Revolutions

≈ 12.4

Per day

Orbit

SSO

Sun Synchronous Orbit

Inclination

102.1

Latest

Satellite identification and parameters

Extended collection of information and parameters for DELTA 1 DEB.

Object identification

Identified? True

Debris? True

Object name: DELTA 1 DEB

International designator: 1973-086AA

Object number (NORAD): 7034

Object ID (CCSDS): 7034

Country: UNITED STATES OF AMERICA (US)

Current information (Y/N): Y

RCS size: SMALL

Orbital parameters

Period: 115.773 minutes

Inclination: 102.0767 deg

SMA: 7868.614 km

Apoapsis: 1502.886 km

Periapsis: 1478.072 km

RAAN: 164.1708 deg

Eccentricy: 0.0015768

Argument of periapsis: 295.9861 deg

Mean anomaly: 120.8278 deg

Mean motion: 12.43813865 rev/day

Mean motion (dot): -0.00000013 rev/day2

B* drag term: 0.00023359 1/REarth

Two-line elements (TLE)

Creation date: July 6, 2025, 10:36 p.m.

Reference frame: TEME

Reference center: EARTH

Epoch: July 6, 2025, 9:11 p.m. UTC

TLE line 0: 0 DELTA 1 DEB

TLE line 1: 1 7034U 73086AA 25187.88269610 -.00000013 00000-0 23359-3 0 9991

TLE line 2: 2 7034 102.0767 164.1708 0015768 295.9861 120.8278 12.43813865343305

Live tracking on map

Real-time ground track for satellite DELTA 1 DEB.

In-orbit conjunctions

A list of the most updated potential collisions computed for object DELTA 1 DEB.

Target Orbit TCA Probability of collision Miss distance Type
COSMOS 2353 LEO 2025-07-04 23:14:05 0.0001105203 279.0 (m) PAYLOAD

Associated space launch

Meteorological satellite using radiometric imaging

DELTA 1 DEB was lifted into orbit during the mission ‘Delta 0300 | NOAA 3’, on board a Delta 0300 space rocket.

The launch took place on Nov. 6, 1973, 5:02 p.m. from Space Launch Complex 2W.

For more information about the launch, click the button.

Launch to space Delta 0300 | NOAA 3
Delta 0300 | NOAA 3

Agency: N/A

Status: Launch Successful

Launch date: Nov. 6, 1973, 5:02 p.m. UTC

Rocket: Delta 0300

Launch pad: Space Launch Complex 2W

Location: Vandenberg SFB, CA, USA

...

Latest news about this satellite

There are no fresh news available about this satellite. Check back as we update our databases every day.


Newsletter sign-up

Weekly statistics, charts and insights to help you stay on top of the space industry.